weather.gov     
National Weather Service

Regional Weather Roundup
NWS Homepage
This page is being discontinued on March 12, 2014.
The same data is available at this site. Please update your bookmarks.
Thank you, and we apologize for the inconvenience.
Please send an email to SR-SRH.Webmaster@noaa.gov with any concerns.


Current Version
Previous Version:    01  02  03  04  05  06  07  08  09  10  11  12  13  14  15  16  17  18  19  20  21  22  23  24  25  
[Printable]
605
ASUS45 KSLC 301310
RWRUT

UTAH REGIONAL WEATHER ROUNDUP
NATIONAL WEATHER SERVICE SALT LAKE CITY UT
700 AM MDT THU OCT 30 2014

UTZ001>011-023>025-301400-

NORTHERN UTAH

CITY           SKY/WX    TMP DP  RH WIND       PRES   REMARKS
BRIGHAM CITY   CLEAR     37  28  72 CALM      30.29S
HILL AFB       CLEAR     44  27  50 E20       30.27F
LOGAN          MOCLDY    32  27  81 CALM      30.31R
OGDEN          CLEAR     42  27  55 S6        30.27S
PROVO AIRPORT  CLEAR     36  25  64 CALM      30.30S
SALT LAKE CITY PTCLDY    40  30  67 SE6       30.27S
VERNAL         PTCLDY    31  23  72 CALM      30.36R
WENDOVER       PTCLDY    34  25  69 W3        30.27R
HEBER CITY     CLEAR     25  21  86 CALM      30.36R
WEST JORDAN    CLEAR     45  30  57 S6        30.28S

$$

UTZ012>022-026-027-301400-

SOUTHERN/CENTRAL UTAH

CITY           SKY/WX    TMP DP  RH WIND       PRES   REMARKS
BLANDING       PTCLDY    40  15  35 NE3       30.38F
BRYCE CANYON   PTCLDY    27  17  66 W9        30.40R WCI  18
CEDAR CITY     PTCLDY    31  19  61 SW6       30.26F WCI  25
DELTA          MOCLDY    40  21  46 CALM      30.27S
HANKSVILLE       N/A     28  10  47 CALM      30.35R
MILFORD        PTCLDY    30  18  60 S5        30.26S WCI  25
MOAB/CYNLANDS  CLEAR     36  15  42 CALM      30.30R
PRICE          PTCLDY    35  18  49 N3        30.33S
ST GEORGE      SUNNY     50  18  27 CALM      30.20S

$$

REGIONAL REPORTS     COLORADO/ARIZONA

CITY           SKY/WX    TMP DP  RH WIND       PRES   REMARKS
CRAIG, CO      PTCLDY    23  19  85 CALM      30.39S
GRAND JUNCTION PTCLDY    34  20  56 SE6       30.34R WCI  29
RIFLE          CLEAR     28  19  69 CALM      30.40R
MONTROSE       PTCLDY    31  21  66 SE9       30.40R WCI  23
CORTEZ         CLEAR     29  17  61 NE5       30.34R WCI  24
PAGE, AZ       PTCLDY    46  22  38 CALM      30.26S
GRAND CANYON   PTCLDY    27  16  63 CALM      30.34R
KINGMAN        CLEAR     46  29  51 E5        30.13S
FLAGSTAFF      MOCLDY    27  21  78 CALM      30.35S

$$

REGIONAL REPORTS    NEVADA/IDAHO/WYOMING

CITY           SKY/WX    TMP DP  RH WIND       PRES   REMARKS
LAS VEGAS, NV  CLEAR     58  21  24 S8        30.05R
ELY            PTCLDY    28  15  58 S7        30.30S WCI  21
ELKO           PTCLDY    31  20  63 NE3       30.24S
POCATELLO, ID  CLOUDY    43  32  65 E3        30.27F
BURLEY         PTCLDY    36  32  85 N3        30.21F
EVANSTON, WY   PTCLDY    38  22  52 SE5       30.38R WCI  34
ROCK SPRINGS   CLEAR     34  27  75 NW5       30.38R WCI  30

$$




U.S. Dept. of Commerce
NOAA National Weather Service
1325 East West Highway
Silver Spring, MD 20910
E-mail: w-nws.webmaster@noaa.gov
Page last modified: May 16, 2007
NATIONAL WEATHER SERVICE: for Safety, for Work, for Fun - FOR LIFE